Location: Newark
(35.3063°N, 139.5103°E)
Time: 08:22:50
(UTC+00:00)

ISS - Visible Passes

Search period start: 10 December 2019 00:00
Search period end: 20 December 2019 00:00
Orbit: 411 x 421 km, 51.6° (Epoch: 10 December)

Date Brightness Start Highest point End Pass type
(mag) Time Alt. Az. Time Alt. Az. Time Alt. Az.
10 Dec -2.7 08:09:22 10° NNW 08:12:18 27° NE 08:15:09 11° E visible
10 Dec -1.3 09:46:09 10° WNW 09:48:08 23° WSW 09:48:08 23° WSW visible
11 Dec -2.9 08:57:21 10° WNW 09:00:36 49° SW 09:03:12 15° SSE visible
12 Dec -3.8 08:08:48 10° NW 08:12:09 82° NE 08:15:31 10° SE visible
13 Dec -0.6 08:58:05 10° W 09:00:05 15° SW 09:02:05 10° SSW visible
14 Dec -1.4 08:08:49 10° WNW 08:11:44 28° SW 08:14:38 10° SSE visible
19 Dec -0.7 20:47:04 10° S 20:49:30 19° SE 20:51:56 10° E visible
